Weather History for Crookston, MN

Change the Weather History Date:

Monday, April 14, 2014

  Actual Average Record
Temperature  
Mean Temperature 22 °F -  
Max Temperature 26 °F 49 °F 68 °F (2012)
Min Temperature 17 °F 29 °F 17 °F (2014)
Degree Days  
Heating Degree Days 44    
Moisture  
Dew Point 10 °F    
Average Humidity 58    
Maximum Humidity 74    
Minimum Humidity 46    
Precipitation  
Precipitation 0.00 in - - ()
Sea Level Pressure  
Sea Level Pressure 30.22 in    
Wind  
Wind Speed 13 mph (North)    
Max Wind Speed 25 mph    
Max Gust Speed 33 mph    
Visibility 10 miles    
Events Snow    
Averages and records for this station are not official NWS values.
T = Trace of Precipitation, MM = Missing Value Source: NWS Daily Summary

Daily Weather History Graph

Daily Weather History Graph

Search for Another Location

Airport:

Trip Planner

Search our weather history database for the weather conditions in past years. The results will help you decide how hot, cold, wet, or windy it might be!

Date:

Astronomy

Apr. 14, 2014 Rise Set
Actual Time 6:39 AM CDT 8:15 PM CDT
Civil Twilight 6:06 AM CDT 8:47 PM CDT
Nautical Twilight 5:27 AM CDT 9:27 PM CDT
Astronomical Twilight 4:44 AM CDT 10:10 PM CDT
Moon 7:54 PM CDT (4/14) 6:15 AM CDT (4/14)
Length of Visible Light 14h 40m
Length of Day
13h 36m
Full, 100% of the Moon is Illuminated
Apr 14
Full
Apr 15
Full
Apr 22
Last Quarter
Apr 29
New
May 6
First Quarter

Hourly Weather History & Observations

Time (CDT) Temp. Windchill Dew Point Humidity Pressure Visibility Wind Dir Wind Speed Gust Speed Precip Events Conditions
12:15 AM 24.8 °F 13.4 °F 10.4 °F 54% 30.23 in 10.0 mi North 12.7 mph - N/A   Clear
12:34 AM 24.8 °F 12.4 °F 10.4 °F 54% 30.23 in 10.0 mi North 15.0 mph 19.6 mph N/A   Clear
12:54 AM 24.8 °F 12.9 °F 12.2 °F 59% 30.23 in 10.0 mi North 13.8 mph - N/A   Clear
1:15 AM 23.0 °F 11.7 °F 12.2 °F 63% 30.24 in 10.0 mi North 11.5 mph - N/A   Clear
1:34 AM 23.0 °F 14.7 °F 12.2 °F 63% 30.24 in 10.0 mi North 6.9 mph - N/A   Clear
1:54 AM 21.2 °F 10.9 °F 12.2 °F 68% 30.23 in 10.0 mi North 9.2 mph - N/A   Clear
2:14 AM 21.2 °F 11.7 °F 10.4 °F 63% 30.23 in 10.0 mi NNE 8.1 mph - N/A   Clear
2:34 AM 21.2 °F 12.6 °F 10.4 °F 63% 30.22 in 10.0 mi NNE 6.9 mph - N/A   Clear
2:55 AM 21.2 °F 13.6 °F 12.2 °F 68% 30.22 in 10.0 mi NNE 5.8 mph - N/A   Clear
3:14 AM 21.2 °F 12.6 °F 12.2 °F 68% 30.21 in 10.0 mi NNE 6.9 mph - N/A   Clear
3:35 AM 21.2 °F 12.6 °F 10.4 °F 63% 30.21 in 10.0 mi NNE 6.9 mph - N/A   Clear
3:55 AM 21.2 °F 13.6 °F 10.4 °F 63% 30.20 in 10.0 mi NNE 5.8 mph - N/A   Clear
4:14 AM 19.4 °F 10.4 °F 12.2 °F 74% 30.20 in 10.0 mi North 6.9 mph - N/A   Clear
4:35 AM 19.4 °F 9.5 °F 12.2 °F 74% 30.19 in 10.0 mi North 8.1 mph - N/A   Clear
4:55 AM 21.2 °F 13.6 °F 12.2 °F 68% 30.19 in 10.0 mi North 5.8 mph - N/A   Clear
5:14 AM 21.2 °F 11.7 °F 12.2 °F 68% 30.19 in 10.0 mi North 8.1 mph - N/A   Mostly Cloudy
5:35 AM 21.2 °F 11.7 °F 10.4 °F 63% 30.19 in 10.0 mi North 8.1 mph - N/A   Overcast
5:55 AM 21.2 °F 12.6 °F 10.4 °F 63% 30.19 in 10.0 mi North 6.9 mph - N/A   Overcast
6:14 AM 21.2 °F 10.9 °F 10.4 °F 63% 30.20 in 10.0 mi North 9.2 mph - N/A   Overcast
6:35 AM 21.2 °F 11.7 °F 8.6 °F 58% 30.20 in 10.0 mi North 8.1 mph - N/A   Overcast
6:54 AM 23.0 °F 14.7 °F 10.4 °F 59% 30.21 in 10.0 mi North 6.9 mph - N/A   Overcast
7:14 AM 23.0 °F 13.1 °F 8.6 °F 54% 30.21 in 10.0 mi North 9.2 mph - N/A   Overcast
7:35 AM 23.0 °F 12.4 °F 8.6 °F 54% 30.22 in 10.0 mi North 10.4 mph - N/A   Overcast
7:55 AM 23.0 °F 13.1 °F 8.6 °F 54% 30.22 in 10.0 mi North 9.2 mph - N/A   Mostly Cloudy
8:14 AM 24.8 °F 13.4 °F 8.6 °F 50% 30.23 in 10.0 mi North 12.7 mph - N/A   Scattered Clouds
8:35 AM 24.8 °F 14.6 °F 8.6 °F 50% 30.23 in 10.0 mi North 10.4 mph - N/A   Scattered Clouds
8:54 AM 24.8 °F 14.0 °F 6.8 °F 46% 30.23 in 10.0 mi North 11.5 mph - N/A   Scattered Clouds
9:14 AM 24.8 °F 14.0 °F 6.8 °F 46% 30.24 in 10.0 mi North 11.5 mph - N/A   Clear
9:35 AM 24.8 °F 11.9 °F 8.6 °F 50% 30.24 in 10.0 mi North 16.1 mph - N/A   Clear
9:54 AM 24.8 °F 11.9 °F 8.6 °F 50% 30.24 in 10.0 mi North 16.1 mph 19.6 mph N/A   Clear
10:14 AM 24.8 °F 12.4 °F 10.4 °F 54% 30.24 in 10.0 mi North 15.0 mph 18.4 mph N/A   Clear
10:35 AM 26.6 °F 14.7 °F 10.4 °F 51% 30.24 in 10.0 mi NNW 15.0 mph - N/A   Clear
10:54 AM 26.6 °F 15.7 °F 8.6 °F 47% 30.25 in 10.0 mi North 12.7 mph - N/A   Scattered Clouds
11:15 AM 26.6 °F 16.2 °F 10.4 °F 51% 30.24 in 10.0 mi North 11.5 mph 20.7 mph N/A   Scattered Clouds
11:35 AM 26.6 °F 14.3 °F 10.4 °F 51% 30.24 in 10.0 mi NNW 16.1 mph - N/A   Mostly Cloudy
11:54 AM 24.8 °F 14.0 °F 12.2 °F 59% 30.24 in 10.0 mi NNW 11.5 mph 21.9 mph N/A   Mostly Cloudy
12:15 PM 24.8 °F 10.7 °F 15.8 °F 69% 30.24 in 3.0 mi North 19.6 mph 24.2 mph N/A Snow Light Snow
12:34 PM 26.6 °F 13.1 °F 15.8 °F 64% 30.24 in 10.0 mi North 19.6 mph 26.5 mph N/A   Overcast
12:54 PM 26.6 °F 13.1 °F 12.2 °F 55% 30.24 in 10.0 mi NNW 19.6 mph 28.8 mph N/A   Scattered Clouds
1:14 PM 26.6 °F 13.4 °F 12.2 °F 55% 30.23 in 10.0 mi NNW 18.4 mph - N/A   Scattered Clouds
1:34 PM 24.8 °F 10.3 °F 12.2 °F 59% 30.23 in 10.0 mi North 20.7 mph 28.8 mph N/A   Mostly Cloudy
1:55 PM 24.8 °F 10.0 °F 12.2 °F 59% 30.23 in 10.0 mi NNW 21.9 mph 27.6 mph N/A   Overcast
2:14 PM 24.8 °F 9.6 °F 10.4 °F 54% 30.23 in 10.0 mi North 23.0 mph 28.8 mph N/A   Overcast
2:34 PM 24.8 °F 11.1 °F 10.4 °F 54% 30.23 in 10.0 mi NNW 18.4 mph 28.8 mph N/A   Mostly Cloudy
2:55 PM 26.6 °F 11.7 °F 12.2 °F 55% 30.23 in 10.0 mi North 24.2 mph 29.9 mph N/A   Scattered Clouds
3:14 PM 24.8 °F 9.6 °F 10.4 °F 54% 30.23 in 10.0 mi North 23.0 mph 28.8 mph N/A   Mostly Cloudy
3:34 PM 24.8 °F 9.3 °F 10.4 °F 54% 30.23 in 10.0 mi North 24.2 mph 27.6 mph N/A   Mostly Cloudy
3:55 PM 24.8 °F 10.0 °F 10.4 °F 54% 30.22 in 10.0 mi NNW 21.9 mph 29.9 mph N/A   Mostly Cloudy
4:14 PM 24.8 °F 9.3 °F 10.4 °F 54% 30.22 in 10.0 mi North 24.2 mph 31.1 mph N/A   Mostly Cloudy
4:35 PM 24.8 °F 9.6 °F 10.4 °F 54% 30.22 in 10.0 mi North 23.0 mph 33.4 mph N/A   Mostly Cloudy
4:54 PM 24.8 °F 9.0 °F 10.4 °F 54% 30.22 in 10.0 mi North 25.3 mph 29.9 mph N/A   Mostly Cloudy
5:14 PM 24.8 °F 10.0 °F 10.4 °F 54% 30.22 in 10.0 mi North 21.9 mph 28.8 mph N/A   Mostly Cloudy
5:35 PM 24.8 °F 10.3 °F 10.4 °F 54% 30.22 in 10.0 mi North 20.7 mph 27.6 mph N/A   Mostly Cloudy
5:54 PM 24.8 °F 9.3 °F 8.6 °F 50% 30.22 in 10.0 mi NNW 24.2 mph 28.8 mph N/A   Scattered Clouds
6:14 PM 23.0 °F 8.3 °F 8.6 °F 54% 30.22 in 10.0 mi North 19.6 mph 28.8 mph N/A   Scattered Clouds
6:35 PM 21.2 °F 5.2 °F 8.6 °F 58% 30.22 in 10.0 mi North 21.9 mph 32.2 mph N/A   Scattered Clouds
6:54 PM 21.2 °F 4.5 °F 6.8 °F 54% 30.23 in 10.0 mi North 24.2 mph 27.6 mph N/A   Scattered Clouds
7:14 PM 21.2 °F 4.9 °F 8.6 °F 58% 30.22 in 10.0 mi North 23.0 mph 27.6 mph N/A   Clear
7:35 PM 21.2 °F 4.9 °F 6.8 °F 54% 30.22 in 10.0 mi North 23.0 mph 29.9 mph N/A   Clear
7:54 PM 19.4 °F 3.2 °F 6.8 °F 58% 30.22 in 10.0 mi North 20.7 mph 27.6 mph N/A   Clear
8:14 PM 19.4 °F 4.1 °F 6.8 °F 58% 30.23 in 10.0 mi North 18.4 mph 25.3 mph N/A   Clear
8:35 PM 19.4 °F 3.6 °F 6.8 °F 58% 30.23 in 10.0 mi North 19.6 mph 26.5 mph N/A   Clear
8:54 PM 19.4 °F 5.0 °F 6.8 °F 58% 30.23 in 10.0 mi North 16.1 mph 19.6 mph N/A   Clear
9:15 PM 19.4 °F 4.1 °F 5.0 °F 54% 30.23 in 10.0 mi North 18.4 mph 24.2 mph N/A   Clear
9:35 PM 19.4 °F 5.5 °F 6.8 °F 58% 30.24 in 10.0 mi North 15.0 mph 25.3 mph N/A   Clear
9:54 PM 17.6 °F 3.2 °F 6.8 °F 63% 30.24 in 10.0 mi North 15.0 mph - N/A   Clear
10:15 PM 17.6 °F 2.2 °F 5.0 °F 58% 30.23 in 10.0 mi North 17.3 mph - N/A   Clear
10:35 PM 17.6 °F 3.2 °F 6.8 °F 63% 30.23 in 10.0 mi North 15.0 mph - N/A   Clear
10:54 PM 17.6 °F 4.3 °F 6.8 °F 63% 30.23 in 10.0 mi North 12.7 mph - N/A   Clear
11:15 PM 17.6 °F 4.3 °F 6.8 °F 63% 30.23 in 10.0 mi North 12.7 mph - N/A   Clear
11:34 PM 17.6 °F 4.3 °F 5.0 °F 58% 30.22 in 10.0 mi North 12.7 mph - N/A   Clear
11:54 PM 17.6 °F 5.0 °F 6.8 °F 63% 30.22 in 10.0 mi North 11.5 mph - N/A   Clear